This is the latest recevied weather packets stored in our database for station/object KI6SYE. If no packets are shown the sender has not sent any weather packets the latest 10 day(s).
| Time | Temp. | Humidity | Pressure | Rain* | Wind** | Luminosity | Snow |
|---|---|---|---|---|---|---|---|
| 1777776956 | 15.56° C | 88% | 1011 hPa | 0 mm | - | 0 W/m² | - |
| 1777776654 | 15.56° C | 88% | 1011 hPa | 0 mm | - | 0 W/m² | - |
| 1777776350 | 15.56° C | 88% | 1010.9 hPa | 0 mm | - | 1 W/m² | - |
| 1777776048 | 15.56° C | 88% | 1011 hPa | 0 mm | - | 2 W/m² | - |
| 1777775744 | 15.56° C | 88% | 1010.9 hPa | 0 mm | - | 3 W/m² | - |
| 1777775442 | 15.56° C | 87% | 1010.9 hPa | 0 mm | - | 5 W/m² | - |
| 1777775138 | 15.56° C | 87% | 1010.8 hPa | 0 mm | - | 8 W/m² | - |
| 1777774832 | 15.56° C | 87% | 1011 hPa | 0 mm | - | 11 W/m² | - |
| 1777774530 | 15.56° C | 87% | 1010.6 hPa | 0 mm | - | 14 W/m² | - |
| 1777774227 | 15.56° C | 86% | 1011 hPa | 0 mm | - | 17 W/m² | - |
| 1777773924 | 15.56° C | 86% | 1010.7 hPa | 0 mm | - | 20 W/m² | - |
| 1777773620 | 15.56° C | 86% | 1010.7 hPa | 0 mm | - | 25 W/m² | - |
| 1777773317 | 16.11° C | 85% | 1010.6 hPa | 0 mm | - | 31 W/m² | - |
| 1777773014 | 16.11° C | 85% | 1010.7 hPa | 0 mm | - | 37 W/m² | - |
| 1777772710 | 16.11° C | 85% | 1010.9 hPa | 0 mm | - | 44 W/m² | - |
| 1777772409 | 16.11° C | 84% | 1010.9 hPa | 0 mm | - | 46 W/m² | - |
| 1777772105 | 16.11° C | 85% | 1010.8 hPa | 0 mm | - | 63 W/m² | - |
| 1777771803 | 16.11° C | 85% | 1010.9 hPa | 0 mm | - | 61 W/m² | - |
| 1777771500 | 16.67° C | 83% | 1010.8 hPa | 0 mm | - | 72 W/m² | - |
| 1777771196 | 16.67° C | 82% | 1010.8 hPa | 0 mm | - | 72 W/m² | - |
| 1777770893 | 16.67° C | 82% | 1010.6 hPa | 0 mm | - | 68 W/m² | - |
| 1777770590 | 17.22° C | 81% | 1010.6 hPa | 0 mm | - | 65 W/m² | - |
| 1777770287 | 16.67° C | 82% | 1010.6 hPa | 0 mm | - | 64 W/m² | - |
| 1777769984 | 16.67° C | 82% | 1010.9 hPa | 0 mm | - | 75 W/m² | - |
| 1777769682 | 17.22° C | 81% | 1010.6 hPa | 0 mm | - | 68 W/m² | - |
* Rain latest hour (hover to see other rain measurements)
** Current wind speed in m/s (hover to see current wind gust speed)